Time,TemperatureF,DewpointF,PressureIn,WindDirection,WindDirectionDegrees,WindSpeedMPH,WindSpeedGustMPH,Humidity,HourlyPrecipIn,Conditions,Clouds,dailyrainin,SoftwareType,DateUTC
2013-01-01 00:00:00,48.5,28.7,30.06,NW,306,0.0,2.0,46,0.00,,SKC,0.00,VWS V14.01,2013-01-01 05:00:00,
2013-01-01 00:01:00,48.5,28.7,30.06,NW,306,0.0,2.0,46,0.00,,SKC,0.00,VWS V14.01,2013-01-01 05:01:00,
2013-01-01 00:06:00,48.5,28.7,30.04,NNW,335,0.0,2.0,46,0.00,,SKC,0.00,VWS V14.01,2013-01-01 05:06:00,
2013-01-01 00:11:00,48.5,28.7,30.04,NNW,335,0.0,2.0,46,0.00,,SKC,0.00,VWS V14.01,2013-01-01 05:11:00,
2013-01-01 00:16:00,48.5,28.7,30.04,SW,220,0.0,2.0,46,0.00,,SKC,0.00,VWS V14.01,2013-01-01 05:16:00,
2013-01-01 00:21:00,48.5,28.7,30.04,NNW,332,0.0,2.0,46,0.00,,SKC,0.00,VWS V14.01,2013-01-01 05:21:00,
2013-01-01 00:26:00,48.5,29.7,30.04,North,0,0.0,2.0,48,0.00,,SKC,0.00,VWS V14.01,2013-01-01 05:26:00,
2013-01-01 00:31:00,48.5,29.2,30.04,North,0,0.0,2.0,47,0.00,,SKC,0.00,VWS V14.01,2013-01-01 05:31:00,
2013-01-01 00:36:00,48.3,29.0,30.03,SW,215,1.0,3.0,47,0.00,,SKC,0.00,VWS V14.01,2013-01-01 05:36:00,
2013-01-01 00:41:00,48.3,28.5,30.03,NW,309,0.0,3.0,46,0.00,,SKC,0.00,VWS V14.01,2013-01-01 05:41:00,
2013-01-01 00:46:00,48.3,28.5,30.03,SE,130,0.0,3.0,46,0.00,,SKC,0.00,VWS V14.01,2013-01-01 05:46:00,
2013-01-01 00:51:00,48.2,28.4,30.01,SSW,193,0.0,3.0,46,0.00,,SKC,0.00,VWS V14.01,2013-01-01 05:51:00,
2013-01-01 00:56:00,48.0,28.8,30.01,WSW,247,0.0,3.0,47,0.00,,SKC,0.00,VWS V14.01,2013-01-01 05:56:00,
2013-01-01 01:01:00,48.0,29.3,30.01,WSW,243,0.0,3.0,48,0.00,,SKC,0.00,VWS V14.01,2013-01-01 06:01:00,
2013-01-01 01:06:00,47.9,28.7,30.01,SW,223,0.0,3.0,47,0.00,,SKC,0.00,VWS V14.01,2013-01-01 06:06:00,
2013-01-01 01:11:00,47.7,29.0,30.01,SW,223,0.0,3.0,48,0.00,,SKC,0.00,VWS V14.01,2013-01-01 06:11:00,
2013-01-01 01:16:00,47.6,28.9,30.01,South,188,0.0,3.0,48,0.00,,SKC,0.00,VWS V14.01,2013-01-01 06:16:00,
2013-01-01 01:21:00,47.6,28.9,30.00,South,188,0.0,3.0,48,0.00,,SKC,0.00,VWS V14.01,2013-01-01 06:21:00,
2013-01-01 01:26:00,47.4,29.2,30.00,SSW,193,0.0,3.0,49,0.00,,SKC,0.00,VWS V14.01,2013-01-01 06:26:00,
2013-01-01 01:31:00,47.4,29.7,30.00,South,175,0.0,3.0,50,0.00,,SKC,0.00,VWS V14.01,2013-01-01 06:31:00,
2013-01-01 01:36:00,47.4,29.7,30.00,South,175,0.0,1.0,50,0.00,,SKC,0.00,VWS V14.01,2013-01-01 06:36:00,
2013-01-01 01:41:00,47.4,29.7,30.00,South,175,0.0,1.0,50,0.00,,SKC,0.00,VWS V14.01,2013-01-01 06:41:00,
2013-01-01 01:46:00,47.4,29.7,30.00,South,175,0.0,1.0,50,0.00,,SKC,0.00,VWS V14.01,2013-01-01 06:46:00,
2013-01-01 01:51:00,47.4,29.7,30.00,SW,230,0.0,2.0,50,0.00,,SKC,0.00,VWS V14.01,2013-01-01 06:51:00,
2013-01-01 01:56:00,47.4,30.2,30.00,NW,304,0.0,2.0,51,0.00,,SKC,0.00,VWS V14.01,2013-01-01 06:56:00,
2013-01-01 02:01:00,47.6,29.9,30.00,SSW,203,0.0,2.0,50,0.00,,SKC,0.00,VWS V14.01,2013-01-01 07:01:00,
2013-01-01 02:06:00,47.6,30.4,29.99,South,185,0.0,2.0,51,0.00,,SKC,0.00,VWS V14.01,2013-01-01 07:06:00,
2013-01-01 02:11:00,47.6,30.4,29.99,East,88,0.0,2.0,51,0.00,,SKC,0.00,VWS V14.01,2013-01-01 07:11:00,
2013-01-01 02:16:00,47.6,30.4,29.99,ESE,103,0.0,2.0,51,0.00,,SKC,0.00,VWS V14.01,2013-01-01 07:16:00,
2013-01-01 02:21:00,47.7,30.0,29.99,West,278,0.0,2.0,50,0.00,,SKC,0.00,VWS V14.01,2013-01-01 07:21:00,
2013-01-01 02:26:00,47.7,30.5,29.99,North,359,1.0,2.0,51,0.00,,SKC,0.00,VWS V14.01,2013-01-01 07:26:00,
2013-01-01 02:31:00,47.7,30.5,29.99,WSW,246,0.0,2.0,51,0.00,,SKC,0.00,VWS V14.01,2013-01-01 07:31:00,
2013-01-01 02:36:00,47.7,31.0,30.00,SSW,208,0.0,2.0,52,0.00,,SKC,0.00,VWS V14.01,2013-01-01 07:36:00,
2013-01-01 02:41:00,47.7,30.5,30.00,SSW,196,0.0,2.0,51,0.00,,SKC,0.00,VWS V14.01,2013-01-01 07:41:00,
2013-01-01 02:46:00,47.7,30.5,30.00,NNW,336,0.0,2.0,51,0.00,,SKC,0.00,VWS V14.01,2013-01-01 07:46:00,
2013-01-01 02:51:00,47.7,30.5,30.00,North,10,0.0,2.0,51,0.00,,SKC,0.00,VWS V14.01,2013-01-01 07:51:00,
2013-01-01 02:56:00,47.7,31.0,30.00,SW,227,0.0,3.0,52,0.00,,SKC,0.00,VWS V14.01,2013-01-01 07:56:00,
2013-01-01 03:01:00,47.7,30.5,30.00,SSW,200,1.0,3.0,51,0.00,,SKC,0.00,VWS V14.01,2013-01-01 08:01:00,
2013-01-01 03:06:00,47.7,31.0,30.01,SSE,168,0.0,3.0,52,0.00,,SKC,0.00,VWS V14.01,2013-01-01 08:06:00,
2013-01-01 03:11:00,47.7,31.4,30.01,SSW,202,0.0,3.0,53,0.00,,SKC,0.00,VWS V14.01,2013-01-01 08:11:00,
2013-01-01 03:16:00,47.7,31.4,30.01,ENE,66,0.0,3.0,53,0.00,,SKC,0.00,VWS V14.01,2013-01-01 08:16:00,
2013-01-01 03:21:00,47.7,31.4,30.00,ENE,68,1.0,3.0,53,0.00,,SKC,0.00,VWS V14.01,2013-01-01 08:21:00,
2013-01-01 03:26:00,47.7,31.4,30.00,SSE,165,0.0,3.0,53,0.00,,SKC,0.00,VWS V14.01,2013-01-01 08:26:00,
2013-01-01 03:31:00,47.7,31.4,30.00,SSE,152,0.0,3.0,53,0.00,,SKC,0.00,VWS V14.01,2013-01-01 08:31:00,
2013-01-01 03:36:00,47.6,31.8,30.00,SSE,147,0.0,1.0,54,0.00,,SKC,0.00,VWS V14.01,2013-01-01 08:36:00,
2013-01-01 03:41:00,47.6,31.8,30.00,NNW,329,0.0,2.0,54,0.00,,SKC,0.00,VWS V14.01,2013-01-01 08:41:00,
2013-01-01 03:46:00,47.6,31.8,30.00,NNW,329,0.0,2.0,54,0.00,,SKC,0.00,VWS V14.01,2013-01-01 08:46:00,
2013-01-01 03:51:00,47.4,31.6,29.99,WNW,288,0.0,2.0,54,0.00,,SKC,0.00,VWS V14.01,2013-01-01 08:51:00,
2013-01-01 03:56:00,47.4,31.6,29.99,SW,226,0.0,2.0,54,0.00,,SKC,0.00,VWS V14.01,2013-01-01 08:56:00,
2013-01-01 04:01:00,47.1,31.3,29.99,SW,222,0.0,2.0,54,0.00,,SKC,0.00,VWS V14.01,2013-01-01 09:01:00,
2013-01-01 04:06:00,47.0,31.7,29.99,SW,217,0.0,2.0,55,0.00,,SKC,0.00,VWS V14.01,2013-01-01 09:06:00,
2013-01-01 04:11:00,46.8,31.0,29.99,SSW,213,0.0,2.0,54,0.00,,SKC,0.00,VWS V14.01,2013-01-01 09:11:00,
2013-01-01 04:16:00,46.7,31.4,29.99,SW,233,0.0,2.0,55,0.00,,SKC,0.00,VWS V14.01,2013-01-01 09:16:00,
2013-01-01 04:21:00,46.5,31.2,29.99,SW,232,0.0,2.0,55,0.00,,SKC,0.00,VWS V14.01,2013-01-01 09:21:00,
2013-01-01 04:26:00,46.4,31.1,29.99,SW,232,0.0,2.0,55,0.00,,SKC,0.00,VWS V14.01,2013-01-01 09:26:00,
2013-01-01 04:35:00,46.2,31.4,29.99,SW,232,0.0,2.0,56,0.00,,SKC,0.00,VWS V14.01,2013-01-01 09:35:00,
2013-01-01 04:40:00,46.0,31.2,29.99,WNW,282,0.0,2.0,56,0.00,,SKC,0.00,VWS V14.01,2013-01-01 09:40:00,
2013-01-01 04:45:00,46.0,31.2,29.99,West,274,0.0,2.0,56,0.00,,SKC,0.00,VWS V14.01,2013-01-01 09:45:00,
2013-01-01 04:50:00,46.0,31.6,30.00,West,272,0.0,2.0,57,0.00,,SKC,0.00,VWS V14.01,2013-01-01 09:50:00,
2013-01-01 04:55:00,46.0,31.6,30.00,West,272,0.0,2.0,57,0.00,,SKC,0.00,VWS V14.01,2013-01-01 09:55:00,
2013-01-01 05:00:00,45.8,31.5,30.00,WNW,285,0.0,2.0,57,0.00,,SKC,0.00,VWS V14.01,2013-01-01 10:00:00,
2013-01-01 05:05:00,45.8,31.5,29.99,WNW,285,0.0,2.0,57,0.00,,SKC,0.00,VWS V14.01,2013-01-01 10:05:00,
2013-01-01 05:10:00,45.8,31.9,29.99,WNW,282,0.0,2.0,58,0.00,,SKC,0.00,VWS V14.01,2013-01-01 10:10:00,
2013-01-01 05:15:00,45.8,31.9,29.99,WNW,282,0.0,2.0,58,0.00,,SKC,0.00,VWS V14.01,2013-01-01 10:15:00,
2013-01-01 05:20:00,45.8,31.9,29.99,WNW,282,0.0,2.0,58,0.00,,SKC,0.00,VWS V14.01,2013-01-01 10:20:00,
2013-01-01 05:25:00,46.0,32.1,29.99,WNW,288,0.0,2.0,58,0.00,,SKC,0.00,VWS V14.01,2013-01-01 10:25:00,
2013-01-01 05:30:00,46.1,32.6,29.99,WNW,287,0.0,2.0,59,0.00,,SKC,0.00,VWS V14.01,2013-01-01 10:30:00,
2013-01-01 05:35:00,46.1,32.2,29.99,WNW,287,0.0,0.0,58,0.00,,SKC,0.00,VWS V14.01,2013-01-01 10:35:00,
2013-01-01 05:40:00,46.2,32.7,29.99,WNW,287,0.0,0.0,59,0.00,,SKC,0.00,VWS V14.01,2013-01-01 10:40:00,
2013-01-01 05:45:00,46.2,32.7,29.99,WNW,287,0.0,0.0,59,0.00,,SKC,0.00,VWS V14.01,2013-01-01 10:45:00,
2013-01-01 05:50:00,46.4,33.3,29.99,West,275,0.0,1.0,60,0.00,,SKC,0.00,VWS V14.01,2013-01-01 10:50:00,
2013-01-01 05:55:00,46.5,33.4,29.99,West,275,0.0,1.0,60,0.00,,SKC,0.00,VWS V14.01,2013-01-01 10:55:00,
2013-01-01 06:00:00,46.7,33.2,29.99,West,277,0.0,1.0,59,0.00,,SKC,0.00,VWS V14.01,2013-01-01 11:00:00,
2013-01-01 06:05:00,46.7,33.6,29.98,West,271,0.0,1.0,60,0.00,,SKC,0.00,VWS V14.01,2013-01-01 11:05:00,
2013-01-01 06:10:00,47.0,33.8,29.98,West,271,0.0,1.0,60,0.00,,SKC,0.00,VWS V14.01,2013-01-01 11:10:00,
2013-01-01 06:15:00,47.0,33.8,29.98,West,278,0.0,1.0,60,0.00,,SKC,0.00,VWS V14.01,2013-01-01 11:15:00,
2013-01-01 06:20:00,47.1,33.9,29.99,West,278,0.0,1.0,60,0.00,,SKC,0.00,VWS V14.01,2013-01-01 11:20:00,
2013-01-01 06:25:00,47.1,33.9,29.99,West,278,0.0,1.0,60,0.00,,SKC,0.00,VWS V14.01,2013-01-01 11:25:00,
2013-01-01 06:30:00,47.3,34.1,29.99,SSW,199,0.0,2.0,60,0.00,,SKC,0.00,VWS V14.01,2013-01-01 11:30:00,
2013-01-01 06:35:00,47.4,34.6,29.99,SSW,210,0.0,0.0,61,0.00,,SKC,0.00,VWS V14.01,2013-01-01 11:35:00,
2013-01-01 06:40:00,47.4,34.6,29.99,WSW,246,0.0,1.0,61,0.00,,SKC,0.00,VWS V14.01,2013-01-01 11:40:00,
2013-01-01 06:45:00,47.6,35.2,29.99,WSW,248,0.0,1.0,62,0.00,,SKC,0.00,VWS V14.01,2013-01-01 11:45:00,
2013-01-01 06:50:00,47.7,35.3,29.99,WSW,240,0.0,2.0,62,0.00,,SKC,0.00,VWS V14.01,2013-01-01 11:50:00,
2013-01-01 06:55:00,47.9,35.9,29.99,WSW,256,0.0,2.0,63,0.00,,SKC,0.00,VWS V14.01,2013-01-01 11:55:00,
2013-01-01 07:00:00,47.9,35.9,29.99,WSW,248,1.0,2.0,63,0.00,,SKC,0.00,VWS V14.01,2013-01-01 12:00:00,
2013-01-01 07:05:00,48.0,36.4,30.00,WSW,250,0.0,2.0,64,0.00,,SKC,0.00,VWS V14.01,2013-01-01 12:05:00,
2013-01-01 07:10:00,48.0,36.8,30.00,WSW,250,0.0,2.0,65,0.00,,SKC,0.00,VWS V14.01,2013-01-01 12:10:00,
2013-01-01 07:15:00,48.2,37.4,30.00,WSW,250,0.0,2.0,66,0.00,,SKC,0.00,VWS V14.01,2013-01-01 12:15:00,
2013-01-01 07:20:00,48.2,37.8,30.00,WSW,250,0.0,2.0,67,0.00,,SKC,0.00,VWS V14.01,2013-01-01 12:20:00,
2013-01-01 07:25:00,48.2,37.8,30.00,WSW,248,0.0,2.0,67,0.00,,SKC,0.00,VWS V14.01,2013-01-01 12:25:00,
2013-01-01 07:30:00,48.3,38.2,30.00,WSW,248,0.0,2.0,68,0.00,,SKC,0.00,VWS V14.01,2013-01-01 12:30:00,
2013-01-01 07:35:00,48.3,38.2,30.00,WSW,248,0.0,0.0,68,0.00,,SKC,0.00,VWS V14.01,2013-01-01 12:35:00,
2013-01-01 07:40:00,48.5,39.2,30.00,WSW,253,1.0,1.0,70,0.00,,SKC,0.00,VWS V14.01,2013-01-01 12:40:00,
2013-01-01 07:45:00,48.6,39.6,30.00,WSW,254,0.0,2.0,71,0.00,,SKC,0.00,VWS V14.01,2013-01-01 12:45:00,
2013-01-01 07:50:00,48.8,40.2,30.01,WSW,254,0.0,2.0,72,0.00,,SKC,0.00,VWS V14.01,2013-01-01 12:50:00,
2013-01-01 07:55:00,48.8,40.2,30.01,WSW,254,0.0,2.0,72,0.00,,SKC,0.00,VWS V14.01,2013-01-01 12:55:00,
2013-01-01 08:00:00,48.9,40.6,30.01,North,353,0.0,2.0,73,0.00,,SKC,0.00,VWS V14.01,2013-01-01 13:00:00,
2013-01-01 08:05:00,48.9,40.6,30.02,North,353,0.0,2.0,73,0.00,,SKC,0.00,VWS V14.01,2013-01-01 13:05:00,
2013-01-01 08:10:00,48.9,41.0,30.02,North,353,0.0,2.0,74,0.00,,SKC,0.00,VWS V14.01,2013-01-01 13:10:00,
2013-01-01 08:15:00,48.9,40.6,30.02,North,353,0.0,2.0,73,0.00,,SKC,0.00,VWS V14.01,2013-01-01 13:15:00,
2013-01-01 08:20:00,48.9,41.0,30.02,North,353,0.0,2.0,74,0.00,,SKC,0.00,VWS V14.01,2013-01-01 13:20:00,
2013-01-01 08:25:00,48.8,41.2,30.02,North,353,0.0,2.0,75,0.00,,SKC,0.00,VWS V14.01,2013-01-01 13:25:00,
2013-01-01 08:30:00,48.6,41.7,30.02,North,353,0.0,2.0,77,0.00,,SKC,0.00,VWS V14.01,2013-01-01 13:30:00,
2013-01-01 08:35:00,48.3,41.4,30.01,North,353,0.0,0.0,77,0.00,,SKC,0.00,VWS V14.01,2013-01-01 13:35:00,
2013-01-01 08:40:00,48.0,41.8,30.01,North,353,0.0,0.0,79,0.00,,SKC,0.00,VWS V14.01,2013-01-01 13:40:00,
2013-01-01 08:45:00,47.7,41.5,30.01,North,353,0.0,0.0,79,0.00,,SKC,0.00,VWS V14.01,2013-01-01 13:45:00,
2013-01-01 08:50:00,47.6,42.1,30.02,North,353,0.0,0.0,81,0.01,,SKC,0.01,VWS V14.01,2013-01-01 13:50:00,
2013-01-01 08:55:00,47.6,42.4,30.02,North,353,0.0,0.0,82,0.01,,SKC,0.01,VWS V14.01,2013-01-01 13:55:00,
2013-01-01 09:00:00,47.4,42.5,30.02,North,353,0.0,0.0,83,0.02,,SKC,0.02,VWS V14.01,2013-01-01 14:00:00,
2013-01-01 09:05:00,47.3,43.0,30.02,North,353,0.0,0.0,85,0.02,,SKC,0.02,VWS V14.01,2013-01-01 14:05:00,
2013-01-01 09:10:00,47.1,43.1,30.02,North,353,0.0,0.0,86,0.02,,SKC,0.02,VWS V14.01,2013-01-01 14:10:00,
2013-01-01 09:15:00,47.0,43.0,30.02,North,353,0.0,0.0,86,0.03,,SKC,0.03,VWS V14.01,2013-01-01 14:15:00,
2013-01-01 09:20:00,46.8,43.4,30.01,North,353,0.0,0.0,88,0.03,,SKC,0.03,VWS V14.01,2013-01-01 14:20:00,
2013-01-01 09:25:00,46.7,43.9,30.01,North,353,0.0,0.0,90,0.03,,SKC,0.03,VWS V14.01,2013-01-01 14:25:00,
2013-01-01 09:30:00,46.5,44.0,30.01,North,353,0.0,0.0,91,0.04,,SKC,0.04,VWS V14.01,2013-01-01 14:30:00,
2013-01-01 09:35:00,46.5,43.7,30.01,North,353,0.0,0.0,90,0.04,,SKC,0.04,VWS V14.01,2013-01-01 14:35:00,
2013-01-01 09:40:00,46.4,43.9,30.01,North,353,0.0,0.0,91,0.05,,SKC,0.05,VWS V14.01,2013-01-01 14:40:00,
2013-01-01 09:45:00,46.4,44.2,30.01,North,353,0.0,0.0,92,0.05,,SKC,0.05,VWS V14.01,2013-01-01 14:45:00,
2013-01-01 09:50:00,46.2,44.3,30.01,North,353,0.0,0.0,93,0.05,,SKC,0.05,VWS V14.01,2013-01-01 14:50:00,
2013-01-01 09:55:00,46.2,44.3,30.01,North,353,0.0,0.0,93,0.06,,SKC,0.06,VWS V14.01,2013-01-01 14:55:00,
2013-01-01 10:00:00,46.2,44.6,30.01,North,353,0.0,0.0,94,0.06,,SKC,0.06,VWS V14.01,2013-01-01 15:00:00,
2013-01-01 10:05:00,46.2,44.8,30.01,North,353,0.0,0.0,95,0.06,,SKC,0.06,VWS V14.01,2013-01-01 15:05:00,
2013-01-01 10:10:00,46.2,45.1,30.01,North,353,0.0,1.0,96,0.02,,SKC,0.06,VWS V14.01,2013-01-01 15:10:00,
2013-01-01 10:15:00,46.2,45.1,30.01,North,353,0.0,1.0,96,0.03,,SKC,0.07,VWS V14.01,2013-01-01 15:15:00,
2013-01-01 10:20:00,46.2,45.4,30.03,North,353,0.0,1.0,97,0.03,,SKC,0.07,VWS V14.01,2013-01-01 15:20:00,
2013-01-01 10:25:00,46.4,45.6,30.03,North,353,0.0,1.0,97,0.03,,SKC,0.07,VWS V14.01,2013-01-01 15:25:00,
2013-01-01 10:30:00,46.4,45.6,30.03,North,353,0.0,1.0,97,0.03,,SKC,0.07,VWS V14.01,2013-01-01 15:30:00,
2013-01-01 10:35:00,46.5,46.0,30.02,North,353,0.0,0.0,98,0.03,,SKC,0.07,VWS V14.01,2013-01-01 15:35:00,
2013-01-01 10:40:00,46.5,46.0,30.02,North,353,0.0,0.0,98,0.03,,SKC,0.07,VWS V14.01,2013-01-01 15:40:00,
2013-01-01 10:45:00,46.7,46.2,30.02,North,353,0.0,0.0,98,0.03,,SKC,0.07,VWS V14.01,2013-01-01 15:45:00,
2013-01-01 10:50:00,46.7,46.2,30.01,North,353,0.0,0.0,98,0.03,,SKC,0.07,VWS V14.01,2013-01-01 15:50:00,
2013-01-01 10:55:00,46.8,46.5,30.01,North,353,0.0,0.0,99,0.03,,SKC,0.07,VWS V14.01,2013-01-01 15:55:00,
2013-01-01 11:00:00,47.1,47.1,30.01,North,353,0.0,0.0,100,0.03,,SKC,0.07,VWS V14.01,2013-01-01 16:00:00,
2013-01-01 11:05:00,47.4,47.4,30.01,North,353,0.0,0.0,100,0.03,,SKC,0.07,VWS V14.01,2013-01-01 16:05:00,
2013-01-01 11:10:00,47.7,47.7,30.01,North,353,0.0,0.0,100,0.03,,SKC,0.07,VWS V14.01,2013-01-01 16:10:00,
2013-01-01 11:15:00,48.0,48.0,30.01,North,353,0.0,0.0,100,0.03,,SKC,0.07,VWS V14.01,2013-01-01 16:15:00,
2013-01-01 11:20:00,48.3,48.3,30.00,North,353,0.0,0.0,100,0.03,,SKC,0.07,VWS V14.01,2013-01-01 16:20:00,
2013-01-01 11:25:00,48.6,48.6,30.00,North,353,0.0,0.0,100,0.03,,SKC,0.07,VWS V14.01,2013-01-01 16:25:00,
2013-01-01 11:30:00,48.9,48.9,30.00,North,353,0.0,0.0,100,0.03,,SKC,0.07,VWS V14.01,2013-01-01 16:30:00,
2013-01-01 11:35:00,49.1,49.1,29.99,North,353,0.0,0.0,100,0.00,,SKC,0.07,VWS V14.01,2013-01-01 16:35:00,
2013-01-01 11:40:00,49.2,49.2,29.99,North,353,0.0,0.0,100,0.00,,SKC,0.07,VWS V14.01,2013-01-01 16:40:00,
2013-01-01 11:45:00,49.2,49.2,29.99,North,353,0.0,0.0,100,0.00,,SKC,0.07,VWS V14.01,2013-01-01 16:45:00,
2013-01-01 11:50:00,49.4,49.4,29.98,North,353,0.0,0.0,100,0.00,,SKC,0.07,VWS V14.01,2013-01-01 16:50:00,
2013-01-01 11:55:00,49.5,49.5,29.98,North,353,0.0,0.0,100,0.00,,SKC,0.07,VWS V14.01,2013-01-01 16:55:00,
2013-01-01 12:00:00,49.6,49.6,29.98,North,353,0.0,0.0,100,0.00,,SKC,0.07,VWS V14.01,2013-01-01 17:00:00,
2013-01-01 12:05:00,49.8,49.8,29.98,North,353,0.0,0.0,100,0.00,,SKC,0.07,VWS V14.01,2013-01-01 17:05:00,
2013-01-01 12:10:00,49.8,49.8,29.98,North,353,0.0,0.0,100,0.00,,SKC,0.07,VWS V14.01,2013-01-01 17:10:00,
2013-01-01 12:15:00,49.8,49.8,29.98,North,353,0.0,0.0,100,0.00,,SKC,0.07,VWS V14.01,2013-01-01 17:15:00,
2013-01-01 12:20:00,49.9,49.9,29.97,North,353,0.0,0.0,100,0.00,,SKC,0.07,VWS V14.01,2013-01-01 17:20:00,
2013-01-01 12:25:00,49.9,49.9,29.97,North,353,0.0,0.0,100,0.00,,SKC,0.07,VWS V14.01,2013-01-01 17:25:00,
2013-01-01 12:30:00,49.9,49.9,29.97,North,353,0.0,0.0,100,0.00,,SKC,0.07,VWS V14.01,2013-01-01 17:30:00,
2013-01-01 12:35:00,49.9,49.6,29.96,North,353,0.0,0.0,99,0.00,,SKC,0.07,VWS V14.01,2013-01-01 17:35:00,
2013-01-01 12:40:00,49.8,49.5,29.96,North,353,0.0,0.0,99,0.00,,SKC,0.07,VWS V14.01,2013-01-01 17:40:00,
2013-01-01 12:45:00,49.8,49.5,29.96,North,353,0.0,0.0,99,0.00,,SKC,0.07,VWS V14.01,2013-01-01 17:45:00,
2013-01-01 12:50:00,49.6,49.3,29.95,North,353,0.0,0.0,99,0.00,,SKC,0.07,VWS V14.01,2013-01-01 17:50:00,
2013-01-01 12:55:00,49.6,49.6,29.95,North,353,0.0,0.0,100,0.01,,SKC,0.08,VWS V14.01,2013-01-01 17:55:00,
2013-01-01 13:00:00,49.6,49.3,29.95,North,353,0.0,0.0,99,0.01,,SKC,0.08,VWS V14.01,2013-01-01 18:00:00,
2013-01-01 13:05:00,49.5,49.5,29.95,North,353,0.0,0.0,100,0.01,,SKC,0.08,VWS V14.01,2013-01-01 18:05:00,
2013-01-01 13:10:00,49.5,49.5,29.95,North,353,0.0,0.0,100,0.01,,SKC,0.08,VWS V14.01,2013-01-01 18:10:00,
2013-01-01 13:15:00,49.5,49.5,29.95,North,353,0.0,1.0,100,0.01,,SKC,0.08,VWS V14.01,2013-01-01 18:15:00,
2013-01-01 13:20:00,49.5,49.5,29.96,North,353,0.0,1.0,100,0.02,,SKC,0.09,VWS V14.01,2013-01-01 18:20:00,
2013-01-01 13:25:00,49.5,49.5,29.96,North,353,0.0,1.0,100,0.03,,SKC,0.10,VWS V14.01,2013-01-01 18:25:00,
2013-01-01 13:30:00,49.4,49.4,29.96,North,353,0.0,1.0,100,0.03,,SKC,0.10,VWS V14.01,2013-01-01 18:30:00,
2013-01-01 13:35:00,49.5,49.5,29.94,North,353,0.0,0.0,100,0.04,,SKC,0.11,VWS V14.01,2013-01-01 18:35:00,
2013-01-01 13:40:00,49.5,49.5,29.94,North,353,0.0,0.0,100,0.04,,SKC,0.11,VWS V14.01,2013-01-01 18:40:00,
2013-01-01 13:45:00,49.5,49.5,29.94,North,353,0.0,0.0,100,0.05,,SKC,0.12,VWS V14.01,2013-01-01 18:45:00,
2013-01-01 13:50:00,49.5,49.5,29.93,North,353,0.0,0.0,100,0.05,,SKC,0.12,VWS V14.01,2013-01-01 18:50:00,
2013-01-01 13:55:00,49.6,49.6,29.93,North,353,0.0,0.0,100,0.06,,SKC,0.13,VWS V14.01,2013-01-01 18:55:00,
2013-01-01 14:00:00,49.6,49.6,29.93,North,353,0.0,0.0,100,0.06,,SKC,0.13,VWS V14.01,2013-01-01 19:00:00,
2013-01-01 14:05:00,49.6,49.6,29.94,North,353,0.0,0.0,100,0.06,,SKC,0.13,VWS V14.01,2013-01-01 19:05:00,
2013-01-01 14:10:00,49.8,49.8,29.94,North,353,0.0,0.0,100,0.06,,SKC,0.13,VWS V14.01,2013-01-01 19:10:00,
2013-01-01 14:15:00,49.8,49.8,29.94,North,353,0.0,0.0,100,0.07,,SKC,0.14,VWS V14.01,2013-01-01 19:15:00,
2013-01-01 14:20:00,49.8,49.8,29.92,North,353,0.0,0.0,100,0.07,,SKC,0.14,VWS V14.01,2013-01-01 19:20:00,
2013-01-01 14:25:00,49.6,49.6,29.92,North,353,0.0,0.0,100,0.07,,SKC,0.14,VWS V14.01,2013-01-01 19:25:00,
2013-01-01 14:30:00,49.6,49.6,29.92,North,353,0.0,0.0,100,0.07,,SKC,0.14,VWS V14.01,2013-01-01 19:30:00,
2013-01-01 14:35:00,49.6,49.6,29.91,North,353,0.0,0.0,100,0.05,,SKC,0.15,VWS V14.01,2013-01-01 19:35:00,
2013-01-01 14:40:00,49.6,49.6,29.91,North,353,0.0,0.0,100,0.05,,SKC,0.15,VWS V14.01,2013-01-01 19:40:00,
2013-01-01 14:45:00,49.8,49.8,29.91,North,353,0.0,0.0,100,0.06,,SKC,0.16,VWS V14.01,2013-01-01 19:45:00,
2013-01-01 14:50:00,49.8,49.8,29.92,North,353,0.0,0.0,100,0.06,,SKC,0.16,VWS V14.01,2013-01-01 19:50:00,
2013-01-01 14:55:00,49.9,49.9,29.92,North,353,0.0,0.0,100,0.06,,SKC,0.16,VWS V14.01,2013-01-01 19:55:00,
2013-01-01 15:00:00,49.9,49.9,29.92,North,353,0.0,0.0,100,0.06,,SKC,0.16,VWS V14.01,2013-01-01 20:00:00,
2013-01-01 15:05:00,50.1,50.1,29.91,North,353,0.0,0.0,100,0.07,,SKC,0.17,VWS V14.01,2013-01-01 20:05:00,
2013-01-01 15:10:00,50.1,50.1,29.91,North,353,0.0,0.0,100,0.07,,SKC,0.17,VWS V14.01,2013-01-01 20:10:00,
2013-01-01 15:15:00,50.1,50.1,29.91,North,353,0.0,0.0,100,0.07,,SKC,0.17,VWS V14.01,2013-01-01 20:15:00,
2013-01-01 15:20:00,50.1,50.1,29.91,North,353,0.0,0.0,100,0.07,,SKC,0.17,VWS V14.01,2013-01-01 20:20:00,
2013-01-01 15:25:00,50.1,50.1,29.91,North,353,0.0,0.0,100,0.08,,SKC,0.18,VWS V14.01,2013-01-01 20:25:00,
2013-01-01 15:30:00,50.1,50.1,29.91,North,353,0.0,0.0,100,0.08,,SKC,0.18,VWS V14.01,2013-01-01 20:30:00,
2013-01-01 15:35:00,50.1,50.1,29.92,North,353,0.0,0.0,100,0.03,,SKC,0.18,VWS V14.01,2013-01-01 20:35:00,
2013-01-01 15:40:00,50.2,50.2,29.92,North,353,0.0,0.0,100,0.04,,SKC,0.19,VWS V14.01,2013-01-01 20:40:00,
2013-01-01 15:45:00,50.2,50.2,29.92,North,353,0.0,0.0,100,0.04,,SKC,0.19,VWS V14.01,2013-01-01 20:45:00,
2013-01-01 15:50:00,50.2,50.2,29.93,North,353,0.0,0.0,100,0.05,,SKC,0.20,VWS V14.01,2013-01-01 20:50:00,
2013-01-01 15:55:00,50.2,50.2,29.93,North,353,0.0,0.0,100,0.05,,SKC,0.20,VWS V14.01,2013-01-01 20:55:00,
2013-01-01 16:00:00,50.2,50.2,29.93,North,353,0.0,0.0,100,0.06,,SKC,0.21,VWS V14.01,2013-01-01 21:00:00,
2013-01-01 16:05:00,50.2,50.2,29.92,North,353,0.0,1.0,100,0.03,,SKC,0.21,VWS V14.01,2013-01-01 21:05:00,
2013-01-01 16:10:00,50.2,50.2,29.92,North,353,0.0,1.0,100,0.04,,SKC,0.22,VWS V14.01,2013-01-01 21:10:00,
2013-01-01 16:15:00,50.2,50.2,29.92,North,353,0.0,1.0,100,0.04,,SKC,0.22,VWS V14.01,2013-01-01 21:15:00,
2013-01-01 16:20:00,50.2,50.2,29.92,North,353,0.0,1.0,100,0.04,,SKC,0.22,VWS V14.01,2013-01-01 21:20:00,
2013-01-01 16:25:00,50.2,50.2,29.92,North,353,0.0,1.0,100,0.05,,SKC,0.23,VWS V14.01,2013-01-01 21:25:00,
2013-01-01 16:30:00,50.2,50.2,29.92,North,353,0.0,1.0,100,0.05,,SKC,0.23,VWS V14.01,2013-01-01 21:30:00,
2013-01-01 16:35:00,50.2,50.2,29.92,North,353,0.0,0.0,100,0.06,,SKC,0.24,VWS V14.01,2013-01-01 21:35:00,
2013-01-01 16:40:00,50.2,50.2,29.92,North,353,0.0,0.0,100,0.06,,SKC,0.24,VWS V14.01,2013-01-01 21:40:00,
2013-01-01 16:45:00,50.2,50.2,29.92,North,353,0.0,0.0,100,0.07,,SKC,0.25,VWS V14.01,2013-01-01 21:45:00,
2013-01-01 16:50:00,50.2,50.2,29.92,North,353,0.0,0.0,100,0.07,,SKC,0.25,VWS V14.01,2013-01-01 21:50:00,
2013-01-01 16:55:00,50.1,50.1,29.92,North,353,0.0,0.0,100,0.07,,SKC,0.25,VWS V14.01,2013-01-01 21:55:00,
2013-01-01 17:00:00,50.1,50.1,29.92,North,353,0.0,0.0,100,0.08,,SKC,0.26,VWS V14.01,2013-01-01 22:00:00,
2013-01-01 17:05:00,50.1,50.1,29.93,North,353,0.0,0.0,100,0.08,,SKC,0.26,VWS V14.01,2013-01-01 22:05:00,
2013-01-01 17:10:00,49.9,49.9,29.93,North,353,0.0,0.0,100,0.08,,SKC,0.26,VWS V14.01,2013-01-01 22:10:00,
2013-01-01 17:15:00,49.9,49.9,29.93,North,353,0.0,0.0,100,0.08,,SKC,0.26,VWS V14.01,2013-01-01 22:15:00,
2013-01-01 17:20:00,49.8,49.8,29.93,North,353,0.0,0.0,100,0.08,,SKC,0.26,VWS V14.01,2013-01-01 22:20:00,
2013-01-01 17:25:00,49.8,49.8,29.93,North,353,0.0,0.0,100,0.08,,SKC,0.26,VWS V14.01,2013-01-01 22:25:00,
2013-01-01 17:30:00,49.8,49.8,29.93,North,353,0.0,0.0,100,0.09,,SKC,0.27,VWS V14.01,2013-01-01 22:30:00,
2013-01-01 17:35:00,49.8,49.8,29.91,North,353,0.0,0.0,100,0.09,,SKC,0.27,VWS V14.01,2013-01-01 22:35:00,
2013-01-01 17:40:00,49.6,49.6,29.91,North,353,0.0,0.0,100,0.09,,SKC,0.27,VWS V14.01,2013-01-01 22:40:00,
2013-01-01 17:45:00,49.6,49.6,29.91,North,353,0.0,0.0,100,0.09,,SKC,0.27,VWS V14.01,2013-01-01 22:45:00,
2013-01-01 17:50:00,49.6,49.6,29.91,North,353,0.0,0.0,100,0.09,,SKC,0.27,VWS V14.01,2013-01-01 22:50:00,
2013-01-01 17:55:00,49.5,49.5,29.91,North,353,0.0,0.0,100,0.09,,SKC,0.27,VWS V14.01,2013-01-01 22:55:00,
2013-01-01 18:00:00,49.5,49.5,29.91,North,353,0.0,0.0,100,0.09,,SKC,0.27,VWS V14.01,2013-01-01 23:00:00,
2013-01-01 18:05:00,49.5,49.5,29.90,North,353,0.0,0.0,100,0.09,,SKC,0.27,VWS V14.01,2013-01-01 23:05:00,
2013-01-01 18:10:00,49.5,49.5,29.90,North,353,0.0,0.0,100,0.09,,SKC,0.27,VWS V14.01,2013-01-01 23:10:00,
2013-01-01 18:15:00,49.5,49.5,29.90,North,353,0.0,0.0,100,0.09,,SKC,0.27,VWS V14.01,2013-01-01 23:15:00,
2013-01-01 18:20:00,49.5,49.5,29.91,North,353,0.0,0.0,100,0.09,,SKC,0.27,VWS V14.01,2013-01-01 23:20:00,
2013-01-01 18:25:00,49.5,49.5,29.91,North,353,0.0,0.0,100,0.09,,SKC,0.27,VWS V14.01,2013-01-01 23:25:00,
2013-01-01 18:30:00,49.5,49.5,29.91,North,353,0.0,0.0,100,0.09,,SKC,0.27,VWS V14.01,2013-01-01 23:30:00,
2013-01-01 18:35:00,49.4,49.4,29.90,North,353,0.0,0.0,100,0.10,,SKC,0.28,VWS V14.01,2013-01-01 23:35:00,
2013-01-01 18:40:00,49.4,49.4,29.90,North,353,0.0,0.0,100,0.00,,SKC,0.28,VWS V14.01,2013-01-01 23:40:00,
2013-01-01 18:45:00,49.4,49.4,29.90,North,353,0.0,0.0,100,0.00,,SKC,0.28,VWS V14.01,2013-01-01 23:45:00,
2013-01-01 18:50:00,49.4,49.4,29.90,North,353,0.0,0.0,100,0.00,,SKC,0.28,VWS V14.01,2013-01-01 23:50:00,
2013-01-01 18:55:00,49.4,49.4,29.90,North,353,0.0,0.0,100,0.00,,SKC,0.28,VWS V14.01,2013-01-01 23:55:00,
2013-01-01 19:00:00,49.4,49.4,29.90,North,353,0.0,0.0,100,0.00,,SKC,0.28,VWS V14.01,2013-01-02 00:00:00,
2013-01-01 19:05:00,49.4,49.4,29.90,North,353,0.0,0.0,100,0.00,,SKC,0.28,VWS V14.01,2013-01-02 00:05:00,
2013-01-01 19:10:00,49.4,49.4,29.90,North,353,0.0,0.0,100,0.00,,SKC,0.28,VWS V14.01,2013-01-02 00:10:00,
2013-01-01 19:15:00,49.4,49.4,29.90,North,353,0.0,0.0,100,0.00,,SKC,0.28,VWS V14.01,2013-01-02 00:15:00,
2013-01-01 19:20:00,49.4,49.4,29.93,North,353,0.0,0.0,100,0.00,,SKC,0.28,VWS V14.01,2013-01-02 00:20:00,
2013-01-01 19:25:00,49.4,49.4,29.93,North,353,0.0,0.0,100,0.01,,SKC,0.29,VWS V14.01,2013-01-02 00:25:00,
2013-01-01 19:30:00,49.4,49.4,29.93,North,353,0.0,0.0,100,0.01,,SKC,0.29,VWS V14.01,2013-01-02 00:30:00,
2013-01-01 19:35:00,49.4,49.4,29.93,North,353,0.0,0.0,100,0.01,,SKC,0.29,VWS V14.01,2013-01-02 00:35:00,
2013-01-01 19:40:00,49.4,49.4,29.93,North,353,0.0,0.0,100,0.01,,SKC,0.29,VWS V14.01,2013-01-02 00:40:00,
2013-01-01 19:45:00,49.4,49.4,29.93,North,353,0.0,0.0,100,0.02,,SKC,0.30,VWS V14.01,2013-01-02 00:45:00,
2013-01-01 19:50:00,49.2,49.2,29.91,North,353,0.0,0.0,100,0.02,,SKC,0.30,VWS V14.01,2013-01-02 00:50:00,
2013-01-01 19:55:00,49.2,49.2,29.91,North,353,0.0,0.0,100,0.02,,SKC,0.30,VWS V14.01,2013-01-02 00:55:00,
2013-01-01 20:00:00,49.2,49.2,29.91,North,353,0.0,0.0,100,0.03,,SKC,0.31,VWS V14.01,2013-01-02 01:00:00,
2013-01-01 20:05:00,49.2,49.2,29.91,North,353,0.0,0.0,100,0.03,,SKC,0.31,VWS V14.01,2013-01-02 01:05:00,
2013-01-01 20:10:00,49.1,49.1,29.91,North,353,0.0,0.0,100,0.03,,SKC,0.32,VWS V14.01,2013-01-02 01:10:00,
2013-01-01 20:15:00,49.1,49.1,29.91,North,353,0.0,0.0,100,0.04,,SKC,0.32,VWS V14.01,2013-01-02 01:15:00,
2013-01-01 20:20:00,49.1,49.1,29.90,North,353,0.0,0.0,100,0.04,,SKC,0.32,VWS V14.01,2013-01-02 01:20:00,
2013-01-01 20:25:00,49.1,49.1,29.90,North,353,0.0,0.0,100,0.04,,SKC,0.32,VWS V14.01,2013-01-02 01:25:00,
2013-01-01 20:30:00,49.1,49.1,29.90,North,353,0.0,0.0,100,0.04,,SKC,0.32,VWS V14.01,2013-01-02 01:30:00,
2013-01-01 20:35:00,49.1,49.1,29.90,North,353,0.0,0.0,100,0.05,,SKC,0.33,VWS V14.01,2013-01-02 01:35:00,
2013-01-01 20:40:00,48.9,48.9,29.90,North,353,0.0,0.0,100,0.05,,SKC,0.33,VWS V14.01,2013-01-02 01:40:00,
2013-01-01 20:45:00,48.9,48.9,29.90,North,353,0.0,0.0,100,0.05,,SKC,0.33,VWS V14.01,2013-01-02 01:45:00,
2013-01-01 20:50:00,48.9,48.9,29.90,North,353,0.0,0.0,100,0.05,,SKC,0.33,VWS V14.01,2013-01-02 01:50:00,
2013-01-01 20:55:00,48.9,48.9,29.90,North,353,0.0,0.0,100,0.06,,SKC,0.34,VWS V14.01,2013-01-02 01:55:00,
2013-01-01 21:00:00,48.9,48.9,29.90,North,353,0.0,0.0,100,0.06,,SKC,0.34,VWS V14.01,2013-01-02 02:00:00,
2013-01-01 21:05:00,48.9,48.9,29.90,North,353,0.0,0.0,100,0.06,,SKC,0.34,VWS V14.01,2013-01-02 02:05:00,
2013-01-01 21:10:00,48.8,48.8,29.90,North,353,0.0,0.0,100,0.03,,SKC,0.34,VWS V14.01,2013-01-02 02:10:00,
2013-01-01 21:15:00,48.8,48.8,29.90,North,353,0.0,0.0,100,0.03,,SKC,0.34,VWS V14.01,2013-01-02 02:15:00,
2013-01-01 21:20:00,48.8,48.8,29.89,North,353,0.0,0.0,100,0.04,,SKC,0.35,VWS V14.01,2013-01-02 02:20:00,
2013-01-01 21:25:00,48.8,48.8,29.89,North,353,0.0,0.0,100,0.04,,SKC,0.35,VWS V14.01,2013-01-02 02:25:00,
2013-01-01 21:30:00,48.8,48.8,29.89,North,353,0.0,0.0,100,0.05,,SKC,0.36,VWS V14.01,2013-01-02 02:30:00,
2013-01-01 21:35:00,48.8,48.8,29.90,North,353,0.0,0.0,100,0.05,,SKC,0.36,VWS V14.01,2013-01-02 02:35:00,
2013-01-01 21:40:00,48.8,48.8,29.90,North,353,0.0,0.0,100,0.07,,SKC,0.38,VWS V14.01,2013-01-02 02:40:00,
2013-01-01 21:45:00,48.8,48.8,29.90,North,353,0.0,0.0,100,0.07,,SKC,0.38,VWS V14.01,2013-01-02 02:45:00,
2013-01-01 21:50:00,48.8,48.8,29.89,North,353,0.0,0.0,100,0.08,,SKC,0.39,VWS V14.01,2013-01-02 02:50:00,
2013-01-01 21:55:00,48.8,48.8,29.89,North,353,0.0,0.0,100,0.09,,SKC,0.40,VWS V14.01,2013-01-02 02:55:00,
2013-01-01 22:00:00,48.8,48.8,29.89,North,353,0.0,0.0,100,0.09,,SKC,0.40,VWS V14.01,2013-01-02 03:00:00,
2013-01-01 22:05:00,48.8,48.8,29.88,North,353,0.0,0.0,100,0.09,,SKC,0.40,VWS V14.01,2013-01-02 03:05:00,
2013-01-01 22:10:00,48.8,48.8,29.88,North,353,0.0,0.0,100,0.09,,SKC,0.40,VWS V14.01,2013-01-02 03:10:00,
2013-01-01 22:15:00,48.8,48.8,29.88,North,353,0.0,0.0,100,0.10,,SKC,0.41,VWS V14.01,2013-01-02 03:15:00,
2013-01-01 22:20:00,48.8,48.8,29.88,North,353,0.0,0.0,100,0.10,,SKC,0.41,VWS V14.01,2013-01-02 03:20:00,
2013-01-01 22:25:00,48.8,48.8,29.88,North,353,0.0,0.0,100,0.10,,SKC,0.41,VWS V14.01,2013-01-02 03:25:00,
2013-01-01 22:30:00,48.8,48.8,29.88,North,353,0.0,0.0,100,0.11,,SKC,0.42,VWS V14.01,2013-01-02 03:30:00,
2013-01-01 22:35:00,48.6,48.6,29.88,North,353,0.0,0.0,100,0.00,,SKC,0.42,VWS V14.01,2013-01-02 03:35:00,
2013-01-01 22:40:00,48.8,48.8,29.88,North,353,0.0,0.0,100,0.01,,SKC,0.43,VWS V14.01,2013-01-02 03:40:00,
2013-01-01 22:45:00,48.6,48.6,29.88,North,353,0.0,0.0,100,0.02,,SKC,0.44,VWS V14.01,2013-01-02 03:45:00,
2013-01-01 22:50:00,48.6,48.6,29.88,North,353,0.0,0.0,100,0.02,,SKC,0.44,VWS V14.01,2013-01-02 03:50:00,
2013-01-01 22:55:00,48.6,48.6,29.88,North,353,0.0,0.0,100,0.03,,SKC,0.45,VWS V14.01,2013-01-02 03:55:00,
2013-01-01 23:00:00,48.6,48.6,29.88,North,353,0.0,0.0,100,0.03,,SKC,0.45,VWS V14.01,2013-01-02 04:00:00,
2013-01-01 23:05:00,48.6,48.6,29.87,North,353,0.0,0.0,100,0.03,,SKC,0.45,VWS V14.01,2013-01-02 04:05:00,
2013-01-01 23:10:00,48.8,48.8,29.87,North,353,0.0,0.0,100,0.04,,SKC,0.46,VWS V14.01,2013-01-02 04:10:00,
2013-01-01 23:15:00,48.8,48.8,29.87,North,353,0.0,0.0,100,0.05,,SKC,0.47,VWS V14.01,2013-01-02 04:15:00,
2013-01-01 23:20:00,48.8,48.8,29.88,North,353,0.0,0.0,100,0.07,,SKC,0.49,VWS V14.01,2013-01-02 04:20:00,
2013-01-01 23:25:00,48.8,48.8,29.88,North,353,0.0,0.0,100,0.08,,SKC,0.50,VWS V14.01,2013-01-02 04:25:00,
2013-01-01 23:30:00,48.8,48.8,29.88,North,353,0.0,0.0,100,0.09,,SKC,0.51,VWS V14.01,2013-01-02 04:30:00,
2013-01-01 23:35:00,48.6,48.6,29.87,North,353,0.0,0.0,100,0.09,,SKC,0.51,VWS V14.01,2013-01-02 04:35:00,
2013-01-01 23:40:00,48.6,48.6,29.87,North,353,0.0,0.0,100,0.10,,SKC,0.52,VWS V14.01,2013-01-02 04:40:00,
2013-01-01 23:45:00,48.6,48.6,29.87,North,353,0.0,0.0,100,0.10,,SKC,0.52,VWS V14.01,2013-01-02 04:45:00,
2013-01-01 23:50:00,48.6,48.6,29.87,North,353,0.0,0.0,100,0.11,,SKC,0.53,VWS V14.01,2013-01-02 04:50:00,
2013-01-01 23:55:00,48.6,48.6,29.87,North,353,0.0,0.0,100,0.11,,SKC,0.53,VWS V14.01,2013-01-02 04:55:00,